"Pseudo-MPEC" for CAQY992

Created 2024 Sep 6 20:22:06 UT using Find_Orb

Click here for an explanation of pseudo-MPECs

 
 Astrometry: 
     CAQY992*1C2024 09 04.26297122 31 52.374-12 39 15.37   ~9477 21.12GVNEOCPG96
     CAQY992 1C2024 09 04.26866722 31 52.475-12 38 32.96   ~9477 21.65GVNEOCPG96
     CAQY992 1C2024 09 04.27437322 31 52.568-12 37 50.84   ~9477       VNEOCPG96
     CAQY992 1C2024 09 04.28009522 31 52.583-12 37 09.62   ~9477 21.15GVNEOCPG96
     CAQY992  C2024 09 04.30032022 31 52.533-12 34 42.78   ~948M 21.1 GVNEOCPH01
     CAQY992  C2024 09 04.30366522 31 52.579-12 34 18.10   ~948M 21.1 GVNEOCPH01
     CAQY992  C2024 09 04.31513922 31 52.714-12 32 53.49   ~948M 20.9 GVNEOCPH01
     CAQY992  C2024 09 04.32132822 31 52.787-12 32 08.03   ~948M 21.0 GVNEOCPH01
     CAQY992 KC2024 09 04.35527722 31 53.480-12 27 55.40   ~94A7 21.08GVNEOCPI52
     CAQY992 KC2024 09 04.36759022 31 53.660-12 26 24.30   ~94A7 20.42GVNEOCPI52
     CAQY992 KC2024 09 04.37991522 31 53.860-12 24 53.80   ~94A7 21.28GVNEOCPI52
     CAQY992 KC2024 09 04.39222722 31 53.950-12 23 22.50   ~94A7 21.48GVNEOCPI52
     CAQY992  C2024 09 04.41192622 31 57.657-12 20 45.84   ~94Bq 21.15wXNEOCPF52
     CAQY992  C2024 09 04.42443322 31 57.762-12 19 13.27   ~94Bq 21.06wXNEOCPF52
     CAQY992  C2024 09 04.44948622 31 57.970-12 16 07.05   ~94Bq 21.37wXNEOCPF52
     CAQY992  C2024 09 04.50358322 31 58.549-12 09 23.18   ~94K7 20.90GVNEOCPF52
     CAQY992  C2024 09 05.26457322 32 32.976-10 32 35.57   ~957M 20.8 GVNEOCPH01
     CAQY992  C2024 09 05.26831022 32 33.029-10 32 06.40   ~957M 20.6 GVNEOCPH01
     CAQY992  C2024 09 05.28388022 32 33.251-10 30 04.09   ~957M 20.9 GVNEOCPH01
     CAQY992  C2024 09 05.29077622 32 33.345-10 29 09.70   ~957M 20.8 GVNEOCPH01
     CAQY992 !C2024 09 05.29278 22 32 34.19 -10 28 54.3    ~957b 20.2 GVNEOCP673
     CAQY992 !C2024 09 05.29860 22 32 34.25 -10 28 08.5    ~957b       VNEOCP673

Station data:
(673) Table Mountain Observatory, Wrightwood  (N34.381485 W117.682170)
   US/California.  Observers J. Chesley, J. Pittichova. Measurer W. M. Owen
   Jr. 0.61-m f/16 reflector + CCD.
(F52) Pan-STARRS 2, Haleakala  (N20.707382 W156.255910)  US/Hawaii.
   Observers J. Bulger, T. Dukes, T. Lowe, A. Schultz, M. Willman. Measurers
   K. Chambers, S. Chastel, T. de Boer, L. Denneau, J. Fairlamb, H.
   Flewelling, M. Huber, C.-C. Lin, E. Magnier, Y. Ramanjooloo, R. Wainscoat,
   R. Weryk. 1.8-m Ritchey-Chrétien + CCD.
(G96) Mt. Lemmon Survey  (N32.442729 W110.788720)  US/Arizona.  Observer E.
   J. Christensen. 1.5-m reflector + 10K CCD.
(H01) Magdalena Ridge Observatory, Socorro  (N33.984833 W107.189333)  US/New
   Mexico.  Observers W. H. Ryan, E. V. Ryan. Measurer W. H. Ryan. 2.4-m
   f/8.9 reflector + CCD.
(I52) Steward Observatory, Mt. Lemmon Station  (N32.442570 W110.788920)
   US/Arizona.  Observers T. A. Pruyne, B. M. Africano, E. J. Christensen, G.
   A. Farneth, D. C. Fuls, A. R. Gibbs, A. D. Grauer, H. Gröller, J. A.
   Johnson, R. A. Kowalski, S. M. Larson, G. J. Leonard, D. Rankin, R. L.
   Seaman, F. C. Shelly, K. W. Wierzchoś. 1.0-m prime focus + CCD.

Orbital elements:  CAQY992
   Perihelion 2024 Oct 4.72386 +/- 0.104 TT = 17:22:21 (JD 2460588.22386)
Epoch 2024 Sep  5.0 TT = JDT 2460558.5   Earth MOID: 0.0844      AutoNEOCP
M 351.56227244 +/- 0.10             (J2000 ecliptic)
n   0.28387054 +/- 0.00308          Peri.   31.31096 +/- 0.13
a   2.29292135 +/- 0.0166           Node   342.79085 +/- 0.0029
e   0.5389787 +/- 0.00322           Incl.   11.15249 +/- 0.048
P   3.47203                H 25.24  G  0.15   U  8.9
q 1.05708543 +/- 0.000722    Q 3.52875728 +/- 0.0329
From 22 observations 2024 Sept. 4-5 (24.9 hr); mean residual 0".35
Residuals in arcseconds: 
240904 G96  .37-  .49-    240904 I52  .22+  .34+    240905 H01  .14+  .18+    
240904 G96  .17+  .28+    240904 I52  .38+  .17+    240905 H01  .15+  .00     
240904 G96  .60+  .65+    240904 I52  .64+  .85-    240905 H01  .23+  .10-    
240904 G96  .11-  .04-    240904 I52  .92-  1.1-    240905 H01  .19+  .01-    
240904 H01  .09-  .19-    240904 F52  .06-  .11+    240905 673  .01-  .02-    
240904 H01  .02+  .12-    240904 F52  .02-  .06+    240905 673  .35-  .01-    
240904 H01  .01-  .01+    240904 F52  .08-  .20+    
240904 H01  .04-  .16-    240904 F52  .07+  .11-    

Ephemerides (geocentric):
Date (UTC) HH   RA             Dec           delta  r     elong  mag " sig PA
---- --------  ------------   ------------  ------ ------ -----  --- --------
2024 09 06 20  22 33 43.672   -06 54 53.40  .10329 1.1104 172.8 21.0 2.18   3
2024 09 06 21  22 33 45.689   -06 48 49.14  .10316 1.1102 172.8 21.0 2.27   3
2024 09 06 22  22 33 47.712   -06 42 43.89  .10302 1.1101 172.8 21.0 2.36   3
2024 09 06 23  22 33 49.743   -06 36 37.66  .10288 1.1099 172.8 21.0 2.45   3
2024 09 07 00  22 33 51.781   -06 30 30.45  .10274 1.1098 172.7 21.0 2.55   3
2024 09 07 01  22 33 53.825   -06 24 22.24  .10260 1.1096 172.7 21.0 2.64   3
2024 09 07 02  22 33 55.877   -06 18 13.05  .10247 1.1095 172.7 21.0 2.74   3
2024 09 07 03  22 33 57.936   -06 12 02.87  .10233 1.1093 172.7 21.0 2.84   3
2024 09 07 04  22 34 00.002   -06 05 51.70  .10219 1.1092 172.6 21.0 2.95   3
2024 09 07 05  22 34 02.075   -05 59 39.54  .10206 1.1090 172.6 21.0 3.05   3
2024 09 07 06  22 34 04.155   -05 53 26.39  .10192 1.1089 172.6 21.0 3.16   3
2024 09 07 07  22 34 06.243   -05 47 12.25  .10179 1.1087 172.5 21.0 3.27   3
2024 09 07 08  22 34 08.337   -05 40 57.12  .10166 1.1086 172.5 21.0 3.38   3
2024 09 07 09  22 34 10.439   -05 34 41.00  .10152 1.1084 172.5 21.0 3.49   3
2024 09 07 10  22 34 12.548   -05 28 23.88  .10139 1.1083 172.4 21.0 3.61   3
2024 09 07 11  22 34 14.665   -05 22 05.78  .10125 1.1081 172.4 21.0 3.73   3
2024 09 07 12  22 34 16.789   -05 15 46.68  .10112 1.1080 172.4 21.0 3.85   3
2024 09 07 13  22 34 18.920   -05 09 26.59  .10099 1.1078 172.3 21.0 3.97   3
2024 09 07 14  22 34 21.059   -05 03 05.51  .10086 1.1077 172.3 21.0 4.10   3
2024 09 07 15  22 34 23.205   -04 56 43.43  .10073 1.1075 172.3 21.0 4.22   3
2024 09 07 16  22 34 25.358   -04 50 20.37  .10060 1.1074 172.2 21.0 4.35   3
2024 09 07 17  22 34 27.519   -04 43 56.31  .10047 1.1072 172.2 21.0 4.49   4
2024 09 07 18  22 34 29.688   -04 37 31.25  .10034 1.1071 172.1 21.0 4.62   4
2024 09 07 19  22 34 31.864   -04 31 05.20  .10021 1.1069 172.1 21.0 4.76   4
2024 09 07 20  22 34 34.048   -04 24 38.16  .10008 1.1068 172.1 21.0 4.90   4
2024 09 07 21  22 34 36.239   -04 18 10.13  .09995 1.1066 172.0 21.0 5.04   4
2024 09 07 22  22 34 38.438   -04 11 41.10  .09982 1.1065 172.0 21.0 5.18   4
2024 09 07 23  22 34 40.644   -04 05 11.08  .09969 1.1063 171.9 21.0 5.33   4
2024 09 08 00  22 34 42.858   -03 58 40.06  .09957 1.1062 171.9 21.0 5.48   4
2024 09 08 01  22 34 45.080   -03 52 08.05  .09944 1.1060 171.8 21.0 5.63   4
2024 09 08 02  22 34 47.310   -03 45 35.05  .09931 1.1059 171.8 21.0 5.78   4
2024 09 08 03  22 34 49.548   -03 39 01.06  .09919 1.1057 171.7 21.0 5.94   4
2024 09 08 04  22 34 51.793   -03 32 26.07  .09906 1.1056 171.7 21.0 6.10   4
2024 09 08 05  22 34 54.046   -03 25 50.09  .09894 1.1054 171.6 21.0 6.26   4
2024 09 08 06  22 34 56.307   -03 19 13.12  .09881 1.1053 171.6 21.0 6.43   4
2024 09 08 07  22 34 58.576   -03 12 35.15  .09869 1.1051 171.5 21.0 6.59   4
2024 09 08 08  22 35 00.853   -03 05 56.20  .09856 1.1050 171.5 21.0 6.76   4
2024 09 08 09  22 35 03.138   -02 59 16.25  .09844 1.1049 171.4 21.0 6.93   4
2024 09 08 10  22 35 05.431   -02 52 35.31  .09832 1.1047 171.3 21.0 7.11   4
2024 09 08 11  22 35 07.731   -02 45 53.38  .09820 1.1046 171.3 21.0 7.28   4
2024 09 08 12  22 35 10.040   -02 39 10.46  .09807 1.1044 171.2 21.0 7.46   4
2024 09 08 13  22 35 12.357   -02 32 26.55  .09795 1.1043 171.2 21.0 7.64   4
2024 09 08 14  22 35 14.682   -02 25 41.66  .09783 1.1041 171.1 21.0 7.83   4
2024 09 08 15  22 35 17.015   -02 18 55.77  .09771 1.1040 171.0 21.0 8.02   4
2024 09 08 16  22 35 19.357   -02 12 08.90  .09759 1.1038 171.0 21.0 8.21   4
2024 09 08 17  22 35 21.706   -02 05 21.04  .09747 1.1037 170.9 21.0 8.40   4
2024 09 08 18  22 35 24.064   -01 58 32.19  .09735 1.1036 170.9 21.0 8.59   4
2024 09 08 19  22 35 26.430   -01 51 42.36  .09723 1.1034 170.8 21.0 8.79   4